Flag for USA

Past Weather in Reno, Nevada, USA — Yesterday and Last 2 Weeks

Now
91 °F

Sunny.


Feels Like: 87 °F
Forecast: 91 / 56 °F
Wind: 13 mph from Northwest

Location: Reno Tahoe International Airport

Current Time: Jul 6, 2020 at 2:47:59 pm

Latest Report: Jul 6, 2020 at 1:55 pm


Visibility: 10 mi

Pressure: 29.80 "Hg (25.56 "Hg at 1372m altitude)

Humidity: 6%

Dew Point: 15 °F

Location of RenoLocation

Past Weather in Reno — Graph

°F

Reno Temperature Yesterday

Maximum temperature yesterday: 91 °F (at 2:55 pm)
Minimum temperature yesterday: 56 °F (at 6:55 am)
Average temperature yesterday: 75 °F

High & Low Weather Summary for the Past Weeks

 TemperatureHumidityPressure
High98 °F (Jun 23, 3:55 pm)58% (Jul 3, 5:55 am)30.06 "Hg (Jul 3, 5:55 am)
Low49 °F (Jun 29, 5:55 am)6% (Jun 26, 4:55 pm)29.46 "Hg (Jun 28, 9:55 am)
Average75 °F26%29.84 "Hg
* Reported Jun 21 12:55 pm — Jul 6 12:55 pm, Reno. Weather by CustomWeather, © 2020

Note: Actual official high and low records may vary slightly from our data, if they occured in-between our weather recording intervals... More about our weather records

Reno Weather History for the Previous 24 Hours

Scroll right to see more
 ConditionsComfort  
Time TempWeatherWind HumidityBarometerVisibility
12:55 pm
Mon, Jul 6
87 °FSunny.6 mph8%29.81 "Hg10 mi
11:55 am82 °FSunny.No wind12%29.85 "Hg10 mi
10:55 am81 °FSunny.No wind14%29.87 "Hg10 mi
9:55 am74 °FSunny.3 mph20%29.89 "Hg10 mi
8:55 am68 °FSunny.No wind24%29.91 "Hg10 mi
7:55 am63 °FSunny.No wind29%29.93 "Hg10 mi
6:55 am60 °FSunny.No wind31%29.93 "Hg10 mi
5:55 am57 °FSunny.3 mph34%29.93 "Hg10 mi
4:55 am58 °FClear.3 mph33%29.92 "Hg10 mi
3:55 am59 °FClear.3 mph33%29.91 "Hg10 mi
2:55 am59 °FClear.3 mph33%29.92 "Hg10 mi
1:55 am61 °FClear.5 mph34%29.92 "Hg10 mi
12:55 am69 °FClear.No wind26%29.91 "Hg10 mi
11:55 pm
Sun, Jul 5
71 °FClear.5 mph25%29.91 "Hg10 mi
10:55 pm72 °FClear.No wind22%29.92 "Hg10 mi
9:55 pm76 °FClear.12 mph19%29.91 "Hg10 mi
8:55 pm78 °FClear.9 mph16%29.90 "Hg10 mi
7:55 pm81 °FSunny.14 mph13%29.90 "Hg10 mi
6:55 pm84 °FSunny.17 mph10%29.89 "Hg10 mi
5:55 pm87 °FSunny.20 mph9%29.88 "Hg10 mi
4:55 pm89 °FSunny.20 mph8%29.87 "Hg10 mi
3:55 pm90 °FSunny.21 mph6%29.88 "Hg10 mi
2:55 pm91 °FSunny.26 mph6%29.88 "Hg10 mi
Weather by CustomWeather, © 2020

See weather overview